TimePDT,TemperatureF,Dew PointF,Humidity,Sea Level PressureIn,VisibilityMPH,Wind Direction,Wind SpeedMPH,Gust SpeedMPH,PrecipitationIn,Events,Conditions,WindDirDegrees,DateUTC
12:53 AM,59.0,48.9,69,30.03,10.0,Calm,Calm,-,N/A,,Clear,0,2013-06-30 07:53:00
1:53 AM,57.9,48.9,72,30.02,10.0,Calm,Calm,-,N/A,,Clear,0,2013-06-30 08:53:00
2:53 AM,55.9,48.0,75,30.03,10.0,Calm,Calm,-,N/A,,Unknown,0,2013-06-30 09:53:00
3:53 AM,54.0,46.9,77,30.02,10.0,Calm,Calm,-,N/A,,Clear,0,2013-06-30 10:53:00
4:53 AM,52.0,46.9,83,30.01,10.0,Calm,Calm,-,N/A,,Clear,0,2013-06-30 11:53:00
5:53 AM,51.1,46.0,83,30.04,10.0,Calm,Calm,-,N/A,,Clear,0,2013-06-30 12:53:00
6:53 AM,54.0,46.9,77,30.04,10.0,South,3.5,-,N/A,,Clear,180,2013-06-30 13:53:00
7:53 AM,64.0,48.9,58,30.04,10.0,Calm,Calm,-,N/A,,Clear,0,2013-06-30 14:53:00
8:53 AM,73.0,46.9,39,30.02,10.0,Calm,Calm,-,N/A,,Clear,0,2013-06-30 15:53:00
9:53 AM,77.0,51.1,40,30.01,10.0,NNE,6.9,-,N/A,,Clear,30,2013-06-30 16:53:00
10:53 AM,79.0,52.0,39,30.00,10.0,Variable,5.8,-,N/A,,Clear,0,2013-06-30 17:53:00
11:53 AM,82.0,48.0,30,29.98,10.0,NNE,6.9,-,N/A,,Clear,20,2013-06-30 18:53:00
12:53 PM,86.0,44.1,23,29.97,10.0,NE,9.2,-,N/A,,Clear,40,2013-06-30 19:53:00
1:53 PM,86.0,44.1,23,29.97,10.0,NNE,9.2,18.4,N/A,,Partly Cloudy,20,2013-06-30 20:53:00
2:53 PM,88.0,46.0,23,29.97,10.0,NNE,8.1,-,N/A,,Partly Cloudy,30,2013-06-30 21:53:00
3:53 PM,88.0,46.0,23,29.97,10.0,SSW,13.8,24.2,N/A,,Clear,200,2013-06-30 22:53:00
4:53 PM,88.0,46.0,23,29.97,10.0,SSW,8.1,16.1,N/A,,Clear,210,2013-06-30 23:53:00
5:53 PM,86.0,46.0,25,29.98,10.0,South,12.7,16.1,N/A,,Clear,190,2013-07-01 00:53:00
6:53 PM,82.9,46.0,27,29.98,10.0,SSW,6.9,-,N/A,,Clear,210,2013-07-01 01:53:00
7:53 PM,77.0,50.0,39,29.97,10.0,SSW,4.6,-,N/A,,Clear,210,2013-07-01 02:53:00
8:53 PM,73.9,48.9,41,29.96,10.0,SSW,5.8,-,N/A,,Clear,200,2013-07-01 03:53:00
9:53 PM,66.0,50.0,56,29.99,10.0,Variable,3.5,-,N/A,,Clear,0,2013-07-01 04:53:00
10:53 PM,64.0,50.0,60,30.00,10.0,South,3.5,-,N/A,,Clear,190,2013-07-01 05:53:00
11:53 PM,61.0,50.0,67,30.01,10.0,Calm,Calm,-,N/A,,Clear,0,2013-07-01 06:53:00